Showing default

METEOR 2-11, 15099

Orbit data source: Space-Track

METEOR 2-11, 15099 is a Commonwealth of Independent States-origin payload satellite in LEO that was launched on Thu, 05 Jul 1984 UTC via a TSIKLON-3 launch vehicle from the Plesetsk Missile And Space Complex (PKMTR). Payload-class satellites include a variety of spacecraft equipped with specific instruments for various scientific and technological missions. These include communications satellites like Starlink; space stations such as the ISS; scientific satellites like the Hubble; Earth observation satellites from companies like Planet Labs, Umbra, and HawkEye 360; GPS; miniature CubeSats for education and research; and military/defense satellites.

Loading next visibility...
Identifier
15099, 1984-072A
Orbit
LEO
Last TLE update
13 hours ago
Origin
Manufacturer
VNIIEM
Mission
Civil Weather
Bus & Motor
METEOR-2, Unknown motor
Mass
~1,500 kg wet, ~1,500 kg dry
Launch date (UTC)
1984-07-05 (41 years ago)
Launch vehicle
TSIKLON-3
Launch site
Plesetsk Missile And Space Complex (PKMTR)
Object type
Payload
Rocket body
Debris
Shape & HBR
Cyl + 2 Pan, 4.5 m
Radar Cross Section
5.718 m², Large (>1 m²)

Expand to show TLE details & history

TLE from 13 hours ago
0 METEOR 2-11
1 15099U 84072A   25183.60819337  .00000076  00000-0  53533-4 0  9997
2 15099  82.5319 317.9640 0013030 358.5246   1.5874 13.85265919 71949
Epoch: 2025-07-02T14:35Z
TLE epoch observation values (Epoch: 2025-07-02T14:35:47.907Z)
Latitude
-0.00001°
Longitude
178.12753°
Altitude
938.631 km
Speed
7.387 km/s
True Right ascension
21h 11m 51s
True Declination
0° 00' 00"
Sunlit
Object was in full shadow at epoch
Visualization orbit readout
Latitude
77.98615°
Longitude
-40.08161°
Altitude
960.483 km
Speed
7.377 km/s
Apparent Right ascension
03h 46m 57s
Apparent Declination
27° 34' 56"
Sunlit
Object is in daylight
Visualization observer readout
Local Sidereal Time
14:57:41
Azimuth
348.272° N
Elevation
-21.535°
Doppler factor
1
Orbital elements
Apogee altitude
951.958 km
Perigee altitude
932.881 km
Semi-major axis
7,320.556 km
Eccentricity
0.0013
Inclination
82.5319°
RAAN
317.964°
Arg. of periapsis
358.5246°
True anomaly
Unknown
Mean anomaly
1.5874°
Eccentric anomaly
Unknown
Mean motion
3.46519 °/min
Orbital period
103.89 mins
BSTAR
0.000053533
Loading maneuver chart data...
Loading SW <> Apogee altitude chart data...
Loading historical data...
Loading historical data...
Loading historical data...
Loading historical data...
Loading historical data...
Loading historical data...
Loading historical data...

METEOR 2-11 Visibility forecast

Observer location: undefined°, undefined°

Span
Click to sort rows by Start time (UTC) header in descending order
Start Az.
Max El. time (UTC)
Max El. Az.
Max El.
End time (UTC)
End Az.
4 mins2025-07-03 08:05:32.445Z101.103° ESE2025-07-03 08:07:32.445Z81.227° E11.983°2025-07-03 08:09:32.445Z61.13° ENE
11 mins2025-07-03 09:46:32.445Z188.463° SSW2025-07-03 09:51:32.445Z284.523° WNW44.893°2025-07-03 09:57:32.445Z6.57° NNE
10 mins2025-07-03 20:39:32.445Z357.823° N2025-07-03 20:44:32.445Z113.269° SE43.653°2025-07-03 20:49:32.445Z166.515° S
4 mins2025-07-03 22:26:32.445Z296.268° NW2025-07-03 22:28:32.445Z274.623° WNW14.206°2025-07-03 22:30:32.445Z253.967° W
|